OKEAN-3

Last updated on Thu Nov 21 2024 00:02:12 GMT+0000 (Coordinated Universal Time)

1 21397U 91039A 24325.28029133 .00005538 00000+0 43666-3 0 9996 2 21397 82.5193 75.0738 0015993 141.0135 219.2245 15.00478568793787
UTC large
Height (km)
Speed (km/s)
/
Latitude / Longitude
Inclination (degrees)
Orbital Period (minutes)
Azimuth
Elevation
Range (km)
Doppler Factor

Next 0 passes for location: London (51.5072 / 0.1276)

Sorry there are no passes over London.